Miscellaneous Local Product
Issued by NWS Hastings, NE

Home | Current Version | Previous Version | Text Only | Print | Product List | Glossary Off
Versions: 1 2 3 4 5 6 7 8 9 10 11 12 13 14 15 16 17 18 19 20 21 22 23 24 25 26 27 28 29 30 31 32 33 34 35 36 37 38 39 40 41 42 43 44 45 46 47 48 49 50

000
AXUS43 KGID 211102
MISGRI

GID CWA HOURLY WEATHER ROUNDUP
NATIONAL WEATHER SERVICE HASTINGS NE
500 AM CST SUN DEC 21 2014

NOTE: "FAIR" INDICATES FEW OR NO CLOUDS BELOW 12,000 FEET WITH NO
SIGNIFICANT WEATHER AND/OR OBSTRUCTIONS TO VISIBILITY.

...SOUTH CENTRAL NEBRASKA...

CITY           SKY/WX    TMP DP  RH WIND       PRES   REMARKS
GRAND ISLAND   PTCLDY    31  30  96 S7        29.86F WCI  24
HASTINGS       CLOUDY    33  31  92 S6        29.85F FOG     WCI  28
KEARNEY        FAIR      30  28  93 SW3       29.85F
ORD            NOT AVBL
YORK           FOG       34  34 100 S10       29.87F VSB 1   WCI  26
AURORA         PTCLDY    32  32 100 SW6       29.86F FOG     WCI  26
LEXINGTON      CLOUDY    32  29  90 S5        29.83F WCI  27
HOLDREGE       CLOUDY    35  30  83 SW6       29.84F WCI  30
HEBRON         CLOUDY    36  34  92 S8        29.92F FOG     WCI  29

...NEBRASKA PANHANDLE...

CITY           SKY/WX    TMP DP  RH WIND       PRES   REMARKS
CHADRON        CLEAR     27  22  81 SW8       29.70F WCI  19
ALLIANCE       CLEAR     22  18  85 SW8       29.73F WCI  12
SCOTTSBLUFF    CLEAR     21  16  81 E6        29.74F WCI  13
SIDNEY         CLEAR     24  20  84 SW10      29.79F WCI  14

...WESTERN AND NORTH CENTRAL NEBRASKA...

CITY           SKY/WX    TMP DP  RH WIND       PRES   REMARKS
VALENTINE      MOCLDY    26  23  88 CALM      29.73F
AINSWORTH      CLOUDY    32  26  78 SW9       29.74F WCI  24
ONEILL         CLOUDY    26  25  99 S3        29.80F
BROKEN BOW     MOCLDY    30  26  85 CALM      29.79F
IMPERIAL       MOCLDY    32  25  75 NW6       29.82F WCI  26
NORTH PLATTE   CLOUDY    27  25  92 CALM      29.81F
MCCOOK         CLOUDY    30  28  92 CALM      29.82F

...EASTERN NEBRASKA...

CITY           SKY/WX    TMP DP  RH WIND       PRES   REMARKS
NORFOLK        FOG       32  32 100 S8        29.84F VSB 3/4 WCI  25
SO SIOUX CITY  FOG       35  34  96 SE8       29.87F VSB 1/2 WCI  29
TEKAMAH        CLOUDY    37  35  92 S14       29.90F WCI  28
COLUMBUS       CLOUDY    34  30  86 SW9       29.88F WCI  26
ALBION         FOG       29  28  94 S3        29.83F VSB 1/4
OMAHA EPPLEY   CLOUDY    37  35  92 S10       29.94F FOG     WCI  30
OFFUTT AFB     CLOUDY    36  35  94 SE10      29.93F WCI  29
MILLARD        CLOUDY    37  35  92 S8        29.92F FOG     WCI  31
LINCOLN        CLOUDY    39  36  89 S12       29.92F WCI  32
NEBRASKA CITY  CLOUDY    36  36 100 S14       29.95F FOG     WCI  27
BEATRICE       CLOUDY    38  37  94 S12       29.93F WCI  31
FALLS CITY     CLOUDY    36  33  89 S12       29.99F WCI  28

...NORTHERN KANSAS...

CITY           SKY/WX    TMP DP  RH WIND       PRES   REMARKS
GOODLAND       CLOUDY    33  29  85 CALM      29.82F
HILL CITY      MOCLDY    30  28  92 SW5       29.88F WCI  25
NORTON         SUNNY     34  28  80 S3        29.84F
PHILLIPSBURG   CLEAR     36  36 100 S6        29.88F FOG     WCI  31
SMITH CENTER   CLEAR     32  32 100 SE5       29.89F FOG     WCI  27
BELOIT         CLOUDY    37  36  93 S9        29.92F WCI  31
HAYS           CLOUDY    30  23  74 S6        29.92F VSB 1   WCI  24
RUSSELL        FOG       35  35 100 SW14      29.92F VSB 1/2 WCI  26
CONCORDIA      CLOUDY    36  35  96 S14       29.93F WCI  27
SALINA         CLOUDY    40  37  89 S10       29.98F WCI  33
TOPEKA         CLOUDY   N/A N/A N/A S8        30.04F



USA.gov is the U.S. government's official web portal to all federal, state and local government web resources and services.